[[{"header":{"parameterUnit":"m.s-1","parameterCategory":1,"la1":30.2991,"la2":30.254,"lo1":-89.0895,"lo2":-89.0444,"dy":0.0017,"dx":0.0017,"nx":28,"ny":28,"refTime":"2025-01-02T03:00:00:Z","depth":0,"parameterNumber":2,"parameterNumberName":"U-component_of_WINDS"},"data":[0,0,0,0,0,0,0,0,0,0,0,0,0,0,0,0,0,0,0,0,0,0,0,0,0,0,0,0,0,0,0,0,0,0,0,0,0,0,0,0,0,0,0,0,0,0,0,0,0,0,0,0,0,0,0,0,0,0,0.4966,0.4966,0,0.5009,0.5009,0.501,0.506,0.5061,0.5061,0.5062,0.5106,0.5106,0.5107,0,0,0,0,0,0,0,0,0,0,0,0,0,0.4928,0.4928,0.4966,0.4966,0.4967,0.5009,0.5009,0.501,0.506,0.5061,0.5062,0.5062,0.5106,0.5106,0.5107,0,0,0,0,0,0,0,0,0,0,0,0,0,0.4955,0.4928,0.4966,0.4997,0.5,0.5008,0.5009,0.501,0.5059,0.5061,0.5062,0.5063,0.5105,0.5106,0.5107,0.5088,0,0,0.5109,0.5109,0,0,0,0,0,0,0,0,0.4953,0.4956,0.4992,0.4995,0.4998,0.503,0.5012,0.5036,0.5059,0.5037,0.5062,0.5063,0.508,0.5083,0.5088,0.509,0.5092,0.5109,0.5109,0.511,0.511,0,0,0,0,0,0,0,0.4951,0.4955,0.4983,0.4992,0.4996,0.5009,0.5014,0.5017,0.5051,0.5039,0.5043,0.5047,0.5082,0.5087,0.5089,0.5093,0.5109,0.5109,0.511,0.511,0.5081,0.508,0,0,0,0,0,0,0.4945,0.4953,0.4982,0.4984,0.4978,0.5009,0.5014,0.5019,0.5051,0.5058,0.5046,0.5049,0.5086,0.5089,0.5091,0.507,0.511,0.511,0.5111,0.5082,0.508,0.5079,0,0,0,0,0,0,0.4944,0.4947,0.498,0.4969,0.4975,0.5008,0.5013,0.5019,0.5025,0.5057,0.5063,0.5045,0.5087,0.509,0.5088,0.5072,0.5111,0.5111,0.5083,0.5081,0.508,0.5029,0,0,0,0,0,0,0.4942,0.4946,0.4939,0.4969,0.4975,0.4976,0.5012,0.5019,0.5026,0.503,0.5058,0.5063,0.5088,0.5087,0.5089,0.5074,0.5112,0.5085,0.5082,0.508,0.5032,0.5025,0.502,0,0,0,0,0,0.4941,0.4923,0.4939,0.4942,0.4967,0.4975,0.4978,0.5006,0.5024,0.5017,0.5038,0.5063,0.5074,0.5086,0.5089,0.5074,0.5086,0.5083,0.5081,0.5034,0.5027,0.502,0,0,0,0,0,0,0.4891,0.4928,0.4945,0.4937,0.4952,0.4983,0.4975,0.4997,0.5008,0.5012,0.5047,0.5053,0.5046,0.5061,0.5073,0.5057,0.5084,0.5081,0.5048,0.5041,0.5035,0.503,0.5112,0,0,0,0,0,0.4879,0.4882,0.4914,0.4904,0.4911,0.4941,0.4946,0.4967,0.4984,0.4991,0.5012,0.5028,0.5035,0.5039,0.5048,0.5035,0.5041,0.5026,0.502,0.5015,0.5012,0.5005,0.4998,0.507,0.507,0.507,0,0,0.4853,0.4874,0.4874,0.4894,0.4908,0.4911,0.4947,0.4948,0.495,0.4991,0.499,0.5006,0.5026,0.5018,0.5016,0.503,0.4994,0.5012,0.5007,0.5007,0.5002,0.4995,0.4989,0.5069,0.5069,0.5069,0,0,0.4809,0.4825,0.4817,0.4831,0.4853,0.4874,0.4872,0.49,0.4912,0.4912,0.4943,0.4946,0.4958,0.4971,0.4979,0.494,0.4962,0.4942,0.4909,0.4902,0.4897,0.4892,0.4876,0.487,0.4939,0.4939,0.4939,0,0.4774,0.4779,0.4811,0.481,0.4817,0.4855,0.4848,0.486,0.4883,0.4887,0.4903,0.4919,0.4935,0.493,0.4921,0.4927,0.4925,0.4938,0.4895,0.489,0.4886,0.4872,0.4866,0.4936,0.4937,0.4937,0.4937,0,0.4735,0.4738,0.473,0.4751,0.4758,0.4753,0.4784,0.4787,0.4808,0.4827,0.4826,0.4847,0.486,0.4862,0.4882,0.4859,0.4867,0.4889,0.4915,0.4876,0.4863,0.4858,0.4932,0.4933,0.4934,0.4935,0,0,0.4658,0.4697,0.4693,0.4703,0.473,0.4733,0.4731,0.4743,0.4745,0.476,0.4758,0.4768,0.4788,0.4797,0.4819,0.4813,0.4779,0.4835,0.4836,0.4822,0.4754,0.4736,0.4729,0.4795,0.4794,0.4794,0.4752,0,0.4616,0.4613,0.4642,0.4632,0.4634,0.4671,0.4669,0.4685,0.4703,0.4708,0.4729,0.4734,0.4761,0.4767,0.4763,0.4784,0.4765,0.4788,0.4792,0.4792,0.4784,0.4723,0.4704,0.4663,0.4747,0.4746,0.4746,0,0.4567,0.4579,0.4568,0.4595,0.4597,0.4595,0.4609,0.4613,0.4633,0.4646,0.4657,0.4682,0.4682,0.4709,0.4708,0.4722,0.4727,0.4737,0.4736,0.4736,0.4765,0.4719,0.4652,0.4644,0.4738,0.4739,0.474,0,0.4509,0.4523,0.4518,0.4525,0.4558,0.4555,0.4568,0.4589,0.4594,0.4607,0.4611,0.4624,0.463,0.4639,0.4667,0.4684,0.4662,0.4692,0.4673,0.4672,0.4664,0.4664,0.4594,0.4671,0.4671,0.4671,0.4671,0,0.4458,0.4449,0.4492,0.4489,0.448,0.4514,0.4505,0.4522,0.454,0.4541,0.4575,0.4575,0.4613,0.4617,0.4639,0.4634,0.4638,0.4648,0.4654,0.4644,0.4642,0.4645,0.4647,0.4669,0.467,0.467,0.467,0,0.439,0.4419,0.4416,0.4447,0.4454,0.4447,0.4473,0.4471,0.4492,0.4493,0.4495,0.4527,0.4534,0.4564,0.4578,0.4593,0.4579,0.4592,0.4572,0.4576,0.4554,0.4554,0.4482,0.4473,0.4557,0.4556,0.4555,0,0.4354,0.4349,0.4379,0.4382,0.4394,0.4398,0.4404,0.4438,0.4443,0.4464,0.446,0.4469,0.4478,0.4487,0.4512,0.4523,0.4535,0.4509,0.4536,0.4526,0.4532,0.4531,0.453,0.4502,0.4501,0.45,0.4499,0,0.4287,0.4302,0.4309,0.4321,0.4328,0.4339,0.4352,0.4353,0.4391,0.4394,0.4401,0.4409,0.4423,0.4431,0.4446,0.446,0.4485,0.4491,0.4486,0.4474,0.4462,0.4466,0.4553,0.4491,0.4492,0.4493,0.4493,0.4493,0.4233,0.4229,0.425,0.4257,0.4271,0.4283,0.4282,0.4303,0.431,0.4323,0.4344,0.4348,0.4368,0.439,0.4402,0.4406,0.442,0.4415,0.4413,0.441,0.4404,0.4464,0.4409,0.441,0.441,0.441,0.441,0,0.4166,0.4181,0.4188,0.4205,0.421,0.4235,0.4251,0.4254,0.4257,0.4274,0.4282,0.429,0.4298,0.4324,0.4336,0.4334,0.4345,0.4335,0.4334,0.4337,0.4392,0.4393,0.4325,0.4325,0.4325,0.4325,0.4325,0.4325,0.4131,0.4126,0.4143,0.4144,0.416,0.4164,0.4171,0.4182,0.4195,0.4203,0.421,0.4227,0.4247,0.426,0.4269,0.4277,0.4278,0.4264,0.4275,0.4325,0.4333,0.4341,0.4342,0.4264,0.4264,0.4219,0.4219,0.4218]},{"header":{"parameterUnit":"m.s-1","parameterCategory":1,"la1":30.2991,"la2":30.254,"lo1":-89.0895,"lo2":-89.0444,"dy":0.0017,"dx":0.0017,"nx":28,"ny":28,"refTime":"2025-01-02T03:00:00:Z","depth":0,"parameterNumber":3,"parameterNumberName":"V-component_of_WINDS"},"data":[0,0,0,0,0,0,0,0,0,0,0,0,0,0,0,0,0,0,0,0,0,0,0,0,0,0,0,0,0,0,0,0,0,0,0,0,0,0,0,0,0,0,0,0,0,0,0,0,0,0,0,0,0,0,0,0,0,0,-3.3826,-3.3827,0,-3.387,-3.3871,-3.3871,-3.3889,-3.3889,-3.3889,-3.3889,-3.393,-3.3931,-3.3932,0,0,0,0,0,0,0,0,0,0,0,0,0,-3.3755,-3.3756,-3.3826,-3.3827,-3.3827,-3.387,-3.3871,-3.3871,-3.3889,-3.3889,-3.3889,-3.3889,-3.3929,-3.3931,-3.3932,0,0,0,0,0,0,0,0,0,0,0,0,0,-3.3791,-3.3757,-3.3826,-3.3842,-3.3843,-3.387,-3.3871,-3.3872,-3.3889,-3.3889,-3.3889,-3.3889,-3.3929,-3.3931,-3.3932,-3.3945,0,0,-3.3937,-3.3938,0,0,0,0,0,0,0,0,-3.3789,-3.3794,-3.3839,-3.3841,-3.3843,-3.3874,-3.3861,-3.3896,-3.389,-3.3872,-3.3889,-3.3889,-3.3911,-3.3914,-3.3923,-3.3947,-3.3949,-3.3938,-3.3939,-3.3939,-3.394,0,0,0,0,0,0,0,-3.3786,-3.3792,-3.3843,-3.3839,-3.3842,-3.3845,-3.385,-3.3867,-3.3891,-3.3873,-3.3875,-3.388,-3.3912,-3.3921,-3.3924,-3.3949,-3.3938,-3.3939,-3.394,-3.3941,-3.399,-3.399,0,0,0,0,0,0,-3.3782,-3.379,-3.3842,-3.3845,-3.3815,-3.3847,-3.3852,-3.3864,-3.3891,-3.3895,-3.388,-3.3881,-3.3918,-3.3922,-3.3925,-3.3944,-3.3939,-3.3941,-3.3942,-3.3989,-3.399,-3.399,0,0,0,0,0,0,-3.378,-3.3786,-3.384,-3.3818,-3.3825,-3.3848,-3.3861,-3.3865,-3.3874,-3.3897,-3.39,-3.3885,-3.3918,-3.3923,-3.3941,-3.3946,-3.3942,-3.3943,-3.3989,-3.399,-3.399,-3.3981,0,0,0,0,0,0,-3.3778,-3.3786,-3.3791,-3.3818,-3.3826,-3.3856,-3.3862,-3.3866,-3.3878,-3.3879,-3.3902,-3.3906,-3.3918,-3.3938,-3.3943,-3.3948,-3.3945,-3.3989,-3.3989,-3.399,-3.3981,-3.3981,-3.3981,0,0,0,0,0,-3.3776,-3.3785,-3.3791,-3.3798,-3.3834,-3.3856,-3.3861,-3.3877,-3.3878,-3.3884,-3.3898,-3.3905,-3.3945,-3.394,-3.3945,-3.3951,-3.3989,-3.3989,-3.399,-3.3981,-3.3981,-3.3981,0,0,0,0,0,0,-3.3756,-3.3789,-3.3796,-3.3815,-3.3833,-3.3859,-3.3867,-3.3876,-3.3892,-3.3893,-3.391,-3.3915,-3.3933,-3.3943,-3.3938,-3.3967,-3.3967,-3.3969,-3.3959,-3.3959,-3.3959,-3.3956,-3.3946,0,0,0,0,0,-3.3754,-3.3771,-3.3798,-3.3812,-3.3821,-3.3843,-3.3853,-3.3864,-3.3883,-3.389,-3.3906,-3.3923,-3.394,-3.395,-3.3966,-3.3983,-3.3989,-3.399,-3.399,-3.399,-3.3991,-3.4003,-3.4004,-3.3992,-3.3992,-3.3992,0,0,-3.375,-3.377,-3.3779,-3.3809,-3.3824,-3.3841,-3.3849,-3.3865,-3.3878,-3.3892,-3.3911,-3.3924,-3.3944,-3.3962,-3.3971,-3.3972,-3.3996,-3.399,-3.399,-3.3992,-3.4004,-3.4005,-3.4006,-3.3992,-3.3992,-3.3992,0,0,-3.3751,-3.3768,-3.3783,-3.3799,-3.3823,-3.3838,-3.3842,-3.3868,-3.3877,-3.3897,-3.3909,-3.3924,-3.3951,-3.3966,-3.3977,-3.3988,-3.3995,-3.3992,-3.3993,-3.4004,-3.4005,-3.4006,-3.4012,-3.4013,-3.3993,-3.3993,-3.3993,0,-3.3742,-3.377,-3.3788,-3.3806,-3.382,-3.3836,-3.3851,-3.3865,-3.3892,-3.3901,-3.3902,-3.394,-3.3954,-3.3977,-3.398,-3.3988,-3.3993,-3.399,-3.4004,-3.4005,-3.4006,-3.4011,-3.4013,-3.3993,-3.3993,-3.3993,-3.3993,0,-3.3759,-3.3777,-3.3786,-3.3816,-3.383,-3.3846,-3.3867,-3.3879,-3.389,-3.3904,-3.3926,-3.3944,-3.3966,-3.3972,-3.398,-3.3997,-3.3997,-3.4001,-3.4002,-3.4007,-3.4012,-3.4014,-3.3992,-3.3993,-3.3993,-3.3993,0,0,-3.3746,-3.379,-3.3792,-3.3808,-3.3837,-3.3851,-3.3869,-3.3892,-3.3903,-3.3922,-3.3937,-3.3962,-3.3967,-3.3979,-3.399,-3.4,-3.401,-3.4003,-3.4004,-3.4005,-3.4031,-3.4029,-3.4031,-3.4015,-3.4015,-3.4016,-3.403,0,-3.3753,-3.3787,-3.3806,-3.3832,-3.385,-3.3868,-3.3883,-3.3902,-3.3917,-3.3934,-3.3949,-3.3968,-3.3971,-3.398,-3.399,-3.4006,-3.4016,-3.4005,-3.4029,-3.403,-3.4025,-3.4034,-3.4031,-3.4044,-3.4032,-3.4032,-3.4033,0,-3.3764,-3.3787,-3.3815,-3.3846,-3.3854,-3.3868,-3.3893,-3.3909,-3.3932,-3.3942,-3.3958,-3.3969,-3.3989,-3.3988,-3.4015,-3.4008,-3.4019,-3.4029,-3.403,-3.4033,-3.4032,-3.4038,-3.4048,-3.405,-3.4036,-3.4036,-3.4035,0,-3.3755,-3.3792,-3.3815,-3.3826,-3.3862,-3.3872,-3.3887,-3.391,-3.3924,-3.3945,-3.3954,-3.3976,-3.3988,-3.4005,-3.4022,-3.402,-3.4048,-3.4049,-3.4057,-3.4057,-3.4062,-3.4062,-3.4075,-3.4068,-3.4067,-3.4067,-3.4067,0,-3.376,-3.3777,-3.3812,-3.3825,-3.3846,-3.3868,-3.3886,-3.3902,-3.3924,-3.3941,-3.3956,-3.3971,-3.3993,-3.4011,-3.4024,-3.4046,-3.4051,-3.4059,-3.4063,-3.4059,-3.4058,-3.4066,-3.4066,-3.4068,-3.4068,-3.4068,-3.4068,0,-3.3753,-3.3776,-3.3803,-3.3836,-3.3845,-3.3858,-3.3886,-3.3901,-3.3917,-3.3939,-3.3945,-3.397,-3.3993,-3.4012,-3.4041,-3.405,-3.4072,-3.4076,-3.4065,-3.4068,-3.4076,-3.4075,-3.4095,-3.41,-3.4088,-3.4088,-3.4088,0,-3.3755,-3.377,-3.3806,-3.382,-3.3836,-3.3857,-3.3873,-3.3895,-3.391,-3.394,-3.3951,-3.3975,-3.3996,-3.4031,-3.4051,-3.4073,-3.4078,-3.4084,-3.4081,-3.4078,-3.408,-3.408,-3.4082,-3.4084,-3.4084,-3.4084,-3.4084,0,-3.3757,-3.377,-3.3792,-3.382,-3.3839,-3.3861,-3.3884,-3.3894,-3.392,-3.3937,-3.3962,-3.3978,-3.401,-3.4034,-3.4059,-3.4073,-3.4083,-3.4085,-3.4088,-3.4084,-3.4079,-3.4084,-3.4067,-3.4084,-3.4084,-3.4084,-3.4084,-3.4084,-3.3756,-3.3771,-3.38,-3.3825,-3.3846,-3.3867,-3.3883,-3.3904,-3.3925,-3.3955,-3.3966,-3.3992,-3.4017,-3.4052,-3.4067,-3.4087,-3.4088,-3.4093,-3.4094,-3.4095,-3.4096,-3.4075,-3.4091,-3.4091,-3.4091,-3.4091,-3.4091,0,-3.376,-3.3781,-3.3805,-3.3838,-3.3858,-3.3869,-3.3895,-3.3911,-3.3934,-3.3958,-3.3979,-3.4009,-3.4033,-3.4056,-3.4082,-3.4093,-3.4099,-3.4099,-3.4099,-3.4103,-3.4092,-3.4087,-3.4095,-3.4095,-3.4095,-3.4095,-3.4095,-3.4095,-3.3765,-3.3792,-3.3808,-3.3845,-3.3864,-3.3892,-3.3907,-3.3927,-3.3946,-3.3979,-3.4001,-3.4017,-3.4041,-3.4068,-3.4091,-3.4098,-3.4107,-3.4106,-3.4114,-3.4103,-3.4103,-3.4102,-3.4098,-3.4108,-3.4108,-3.4123,-3.4123,-3.4123]}]]